• Join FlightAware (Why Join?)
  • Login
  • US Flag 
05:05AM EST


 

Airport Tracker/Info


-or-


 

Live Flight TrackerFlight Track Log ✈ UAL582 ✈ 07-Jul-2013 ✈ CYYZ - KORD

Flight Track Log - Related Links

Times and Time Zones

All times are in EDT time to prevent confusion due to time zone crossing. See the UAL582 flight status page for this flight to view local times or setup timezone preferences in your user account.

Time Position Orientation Groundspeed Altitude Reporting Facility
EDT Latitude Longitude Course Direction KTS MPH feet Rate Location/Type
05:48PM 43.6333 -79.7000 257° West 160 184 3,100  Level Toronto Center
05:49PM 43.6167 -79.7667 251° West 240 276 4,800 1,950 Climbing Toronto Center
05:50PM 43.7047 -80.0230 277° West  Level FlightAware Approximate
05:50PM 43.6500 -79.8667 295° West 270 311 7,000  Level Toronto Center
05:51PM 43.7161 -80.1597 277° West  Level FlightAware Approximate
05:51PM 43.6667 -79.9500 285° West 270 311 8,200  Level Toronto Center
05:52PM 43.7240 -80.2965 277° West  Level FlightAware Approximate
05:52PM 43.6833 -80.0667 281° West 280 322 11,200  Level Toronto Center
05:53PM 43.7333 -80.4333 270° West  Level FlightAware Approximate
05:53PM 43.7000 -80.1833 281° West 330 380 12,300  Level Toronto Center
05:54PM 43.7296 -80.5726 257° West  Level FlightAware Approximate
05:54PM 43.7167 -80.3167 280° West 360 414 15,700  Level Toronto Center
05:55PM 43.7333 -80.4667 279° West 350 403 18,000 2,200 Climbing Toronto Center
05:56PM 43.7333 -80.6000 270° West 360 414 20,100 1,900 Climbing Toronto Center
05:57PM 43.7000 -80.7333 251° West 380 437 21,800 1,636 Climbing Toronto Center
05:58PM 43.6500 -80.8833 245° Southwest 390 449 23,400 1,550 Climbing Toronto Center
05:59PM 43.6167 -81.0167 251° West 400 460 24,900 1,765 Climbing Toronto Center
06:00PM 43.6000 -81.1833 262° West 410 472 26,900 1,150 Climbing Toronto Center
06:01PM 43.5667 -81.3333 253° West 420 483 27,200 750 Climbing Toronto Center
06:02PM 43.5333 -81.5000 255° West 440 506 28,400 1,339 Climbing Toronto Center
06:03PM 43.5000 -81.6500 253° West 450 518 29,900 1,650 Climbing Toronto Center
06:04PM 43.4667 -81.8167 255° West 440 506 31,700 1,412 Climbing Toronto Center
06:05PM 43.4000 -81.9667 239° Southwest 440 506 32,700 1,100 Climbing Toronto Center
06:06PM 43.3667 -82.1333 255° West 430 495 33,900 650 Climbing Toronto Center
06:07PM 43.3500 -82.3000 262° West 430 495 34,000 -100 Climbing Toronto Center
06:08PM 43.3000 -82.4500 245° Southwest 440 506 33,700 -350 Descending Toronto Center
06:09PM 43.2667 -82.6167 255° West 440 506 33,300 -450 Descending Toronto Center
06:10PM 43.2167 -82.7833 248° West 450 518 32,800 -500 Descending Toronto Center
06:11PM 43.1833 -82.9333 253° West 450 518 32,300 -400 Descending Toronto Center
06:12PM 43.1333 -83.1000 248° West 460 529 32,000 -150 Descending Toronto Center
06:13PM 43.0833 -83.2667 248° West 460 529 32,000  Level Toronto Center
06:14PM 43.0500 -83.4167 253° West 450 518 32,000 -178 Level Toronto Center
06:15PM 43.0061 -83.6069 253° West 454 522 31,600 -444 Descending Cleveland Center
06:16PM 42.9636 -83.7922 253° West 454 522 31,000 -550 Descending Cleveland Center
06:17PM 42.9461 -83.9672 262° West 459 528 30,500 -480 Descending Cleveland Center
06:18PM 42.9275 -84.1519 262° West 468 539 30,000 -236 Descending Chicago Center
06:19PM 42.9094 -84.3197 262° West 452 520 30,000  Level Chicago Center
06:20PM 42.8936 -84.4894 263° West 453 521 30,000  Level Chicago Center
06:21PM 42.8767 -84.6575 262° West 450 518 30,000  Level Chicago Center
06:23PM 42.8586 -84.8278 262° West 455 524 30,000  Level Chicago Center
06:24PM 42.8403 -84.9981 262° West 454 522 30,000  Level Chicago Center
06:25PM 42.8192 -85.2025 262° West 455 524 30,000 -242 Level Chicago Center
06:26PM 42.7997 -85.3764 261° West 462 532 29,500 -1,161 Descending Chicago Center
06:27PM 42.7758 -85.5578 260° West 482 555 27,600 -1,887 Descending Chicago Center
06:28PM 42.7442 -85.7317 256° West 474 545 25,600 -1,984 Descending Chicago Center
06:29PM 42.7139 -85.8967 256° West 453 521 23,500 -1,968 Descending Chicago Center
06:30PM 42.6850 -86.0583 256° West 441 507 21,500 -1,632 Descending Chicago Center
06:31PM 42.6558 -86.2164 256° West 432 497 20,100 -726 Descending Chicago Center
06:32PM 42.6261 -86.3689 255° West 420 483 20,000 -144 Descending Chicago Center
06:33PM 42.5925 -86.5497 256° West 410 472 19,800 -1,113 Descending Chicago Center
06:34PM 42.5667 -86.6936 256° West 405 466 17,700 -2,146 Descending Chicago Center
06:35PM 42.5306 -86.8369 251° West 389 448 15,400 -2,177 Descending Chicago Center
06:36PM 42.4953 -86.9711 250° West 380 437 13,200 -2,226 Descending Chicago Center
06:37PM 42.4581 -87.0969 248° West 363 418 10,800 -1,548 Descending Chicago Center
06:38PM 42.4250 -87.2197 250° West 350 403 10,000 -629 Descending Chicago Center
06:39PM 42.3908 -87.3447 250° West 301 346 9,500 -435 Descending Chicago Center
06:40PM 42.3639 -87.4403 249° West 295 339 9,100 -677 Descending Chicago Center
06:41PM 42.3358 -87.5442 250° West 295 339 8,100 -1,056 Descending Chicago Center
06:42PM 42.2531 -87.5808 198° South 287 330 6,900 -1,056 Descending Chicago Center
06:43PM 42.1742 -87.5711 175° South 284 327 5,900 -919 Descending Chicago Center
06:44PM 42.1000 -87.5628 175° South 271 312 5,000 -1,016 Descending Chicago Center
06:45PM 42.0456 -87.6175 217° Southwest 245 282 3,800 -1,161 Descending Chicago Center